Winnemucca, NV

11:02 PM PDT on August 21, 2017 (GMT -0700)
Winnemucca Municipal

Weather History for KWMC - August, 2014

Change the Weather History Date:

Sunday, August 10, 2014

  Actual Average Record
Temperature  
Mean Temperature 74 °F 72 °F  
Max Temperature 95 °F 93 °F 103 °F (1969)
Min Temperature 52 °F 50 °F 37 °F (1974)
Degree Days  
Heating Degree Days 0 0  
Month to date heating degree days 4 0  
Since 1 June heating degree days 78 115  
Since 1 July heating degree days 4 10  
Cooling Degree Days 9 7  
Month to date cooling degree days 75 77  
Year to date cooling degree days 552 410  
Since 1 June cooling degree days 543 399  
Growing Degree Days 24 (Base 50)    
Moisture  
Dew Point 41 °F    
Average Humidity 47    
Maximum Humidity 83    
Minimum Humidity 10    
Precipitation  
Precipitation 0.00 in 0.00 in 0.21 in (1983)
Month to date precipitation 0.45 0.06  
Year to date precipitation 4.54 5.24  
Snow  
Snow 0.00 in 0.00 in 0.00 in (1877)
Month to date snowfall 0.0 0.0  
Since 1 June snowfall 0.0 T  
Since 1 July snowfall 0.0 0.0  
Snow Depth 0.00 in    
Sea Level Pressure  
Sea Level Pressure 29.99 in    
Wind  
Wind Speed 6 mph (SE)    
Max Wind Speed 16 mph    
Max Gust Speed 21 mph    
Visibility 10 miles    
Events      
T = Trace of Precipitation, MM = Missing Value Source: NWS Daily Summary

Daily Weather History Graph

Daily Weather History Graph

Search for Another Location

Airport or City:

Trip Planner

Search our weather history database for the weather conditions in past years. The results will help you decide how hot, cold, wet, or windy it might be!

Date:

Astronomy

Aug. 10, 2014 Rise Set
Actual Time 5:56 AM PDT 7:56 PM PDT
Civil Twilight 5:26 AM PDT 8:25 PM PDT
Nautical Twilight 4:49 AM PDT 9:02 PM PDT
Astronomical Twilight 4:10 AM PDT 9:41 PM PDT
Moon 7:45 PM PDT (8/10) 5:54 AM PDT (8/10)
Length of Visible Light 14h 59m
Length of Day
13h 59m
Full, 100% of the Moon is Illuminated
Aug 10
Full
Aug 17
Last Quarter
Aug 25
New
Sep 2
First Quarter
Sep 8
Full

Hourly Weather History & Observations

Time (PDT) Temp. Dew Point Humidity Pressure Visibility Wind Dir Wind Speed Gust Speed Precip Events Conditions
12:56 AM 64.0 °F 48.9 °F 58% 30.03 in 10.0 mi ENE 3.5 mph - N/A   Clear
1:56 AM 57.0 °F 48.9 °F 74% 30.05 in 10.0 mi WSW 5.8 mph - N/A   Clear
2:56 AM 57.0 °F 48.9 °F 74% 30.03 in 10.0 mi SE 3.5 mph - N/A   Clear
3:56 AM 54.0 °F 48.0 °F 80% 30.03 in 10.0 mi East 3.5 mph - N/A   Clear
5:56 AM 53.1 °F 48.9 °F 86% 30.04 in 10.0 mi SE 6.9 mph - N/A   Clear
6:56 AM 61.0 °F 48.9 °F 64% 30.03 in 10.0 mi NE 10.4 mph - N/A   Clear
7:56 AM 66.9 °F 48.0 °F 51% 30.04 in 10.0 mi ENE 10.4 mph - N/A   Clear
8:56 AM 71.1 °F 48.9 °F 45% 30.05 in 10.0 mi NE 9.2 mph - N/A   Clear
9:56 AM 77.0 °F 48.0 °F 36% 30.03 in 10.0 mi NE 5.8 mph - N/A   Clear
10:56 AM 80.1 °F 46.9 °F 31% 30.03 in 10.0 mi West 3.5 mph - N/A   Clear
11:56 AM 84.0 °F 44.1 °F 25% 30.02 in 10.0 mi Variable 4.6 mph - N/A   Clear
12:56 PM 89.1 °F 39.0 °F 17% 30.00 in 10.0 mi SSE 8.1 mph - N/A   Clear
1:56 PM 91.0 °F 35.1 °F 14% 29.99 in 10.0 mi SSE 8.1 mph 21.9 mph N/A   Clear
2:56 PM 93.0 °F 37.9 °F 15% 29.96 in 10.0 mi WNW 9.2 mph - N/A   Clear
3:56 PM 93.0 °F 33.1 °F 12% 29.94 in 10.0 mi West 6.9 mph - N/A   Clear
4:56 PM 93.0 °F 28.0 °F 10% 29.92 in 10.0 mi Variable 6.9 mph - N/A   Clear
5:56 PM 93.0 °F 30.0 °F 11% 29.91 in 10.0 mi Variable 3.5 mph - N/A   Clear
6:56 PM 91.9 °F 30.9 °F 11% 29.90 in 10.0 mi NNW 4.6 mph - N/A   Clear
7:56 PM 84.9 °F 35.1 °F 17% 29.91 in 10.0 mi SE 10.4 mph - N/A   Clear
8:56 PM 82.0 °F 34.0 °F 18% 29.93 in 10.0 mi SSE 8.1 mph - N/A   Partly Cloudy
9:56 PM 78.1 °F 35.1 °F 21% 29.94 in 10.0 mi South 4.6 mph - N/A   Clear
10:56 PM 75.9 °F 39.0 °F 26% 29.96 in 10.0 mi West 6.9 mph - N/A   Partly Cloudy
11:56 PM 73.9 °F 39.9 °F 29% 29.98 in 10.0 mi WNW 6.9 mph - N/A   Clear